Regional Weather Roundup
Issued by NWS

Home | Current Version | Previous Version | Text Only | Print | Product List | Glossary On
Versions: 1 2 3 4 5 6 7 8 9 10 11 12 13 14 15 16 17 18 19 20 21 22 23 24 25 26 27 28 29 30 31 32 33 34 35 36 37 38 39 40 41 42 43 44 45 46 47 48 49 50
000
ASUS43 KLMK 250210
RWRKY
KENTUCKY REGIONAL WEATHER ROUNDUP
NATIONAL WEATHER SERVICE LOUISVILLE KY
1000 PM EDT FRI MAR 24 2017

NOTE "FAIR" INDICATES FEW OR NO CLOUDS BELOW 12,000 FEET
WITH NO SIGNIFICANT WEATHER AND/OR OBSTRUCTIONS TO VISIBILITY.

KYZ001>023-026-027-061>063-070>075-250300-
WESTERN AND SOUTH CENTRAL KENTUCKY

CITY           SKY/WX    TMP DP  RH WIND       PRES   REMARKS
PADUCAH        CLOUDY    66  53  63 SE6       30.06R
HENDERSON      MOCLDY    57  50  77 S5        30.07S
OWENSBORO      CLOUDY    66  54  65 CALM      30.10R
HOPKINSVILLE   CLOUDY    70  54  56 S14G21    30.08R
BOWLING GREEN  CLOUDY    69  53  56 S9        30.13F
GLASGOW        CLOUDY    67  51  58 SE7       30.15F
$$

KYZ024-025-028>034-038-045-046-053-250300-
NORTH CENTRAL KENTUCKY

CITY           SKY/WX    TMP DP  RH WIND       PRES   REMARKS
LOUISVILLE/SDF CLOUDY    70  51  51 S12       30.10F
LOUISVILLE/LOU CLOUDY    70  52  52 S8        30.11F
FORT KNOX      CLOUDY    67  53  61 S13       30.10F
$$

KYZ035>037-039>044-047>052-055>060-089>105-250300-
NORTHEAST KENTUCKY

CITY           SKY/WX    TMP DP  RH WIND       PRES   REMARKS
LEXINGTON      MOCLDY    65  50  58 S9        30.17S
COVINGTON      CLOUDY    68  52  56 S12G21    30.11S
FRANKFORT      CLOUDY    68  51  54 S7        30.13F
$$

KYZ054-064>069-076>088-106>120-250300-
SOUTHEAST KENTUCKY

CITY           SKY/WX    TMP DP  RH WIND       PRES   REMARKS
JACKSON        CLEAR     66  48  52 VRB6      30.23R
LONDON         PTCLDY    64  47  53 SW7       30.24R
SOMERSET       MOCLDY    63  46  55 S6        30.24S
MIDDLESBORO    CLEAR     64  48  56 S3        30.27S
MONTICELLO     CLOUDY    64  50  60 VRB7      30.24S
$$





USA.gov is the U.S. government's official web portal to all federal, state and local government web resources and services.